Tracking 31027 objects as of 19-Jul-2025
HD Live streaming from Space Station
objects crossing your sky now

NOAA 16 DEB

Track NOAA 16 DEB now!
10-day predictions


NORAD ID: 41499
Int'l Code: 2000-055LX
Perigee: 745.0 km
Apogee: 789.9 km
Inclination: 98.7 °
Period: 100.0 minutes
Semi major axis: 7138 km
RCS: Unknown
Launch date: September 21, 2000
Source: United States (US)
Launch site: AIR FORCE WESTERN TEST RANGE (AFWTR)

Note: This is SATELLITE DEBRIS
Your satellite tracking list
DMSP 5D-2 F13 DEB
Track 1 satellite(s)




NASA's NSSDC Master Catalog

Two Line Element Set (TLE):
1 41499U 00055LX  25198.18408672  .00006104  00000-0  19614-2 0  9992
2 41499  98.6974 278.4772 0031451 164.8105 195.4034 14.39448907484706
Source of the keplerian elements: AFSPC